Weather in Razdolnoe

Ukraine / Kherson District     46°41′22″N   33°32′45″E
temp.,
°C
wind,
m/s
gust,
m/s
humid.,
%
clouds,
%
prec.,
mm/h
press.,
hPa
HPBL,
m
13 may, thu
thu1300:00+9sw226979 0.0 101248
03:00+8sw01764 0.0 101245
06:00+8ese007413 0.0 101253
09:00+14ese34565 0.0 1012530
12:00+18ese3445100 0.0 1012900
15:00+20se344637 0.0 10111046
18:00+20sse565375 0.0 1010772
21:00+15ese5967100 0.0 1010201
14 may, fri
fri1400:00+12ese4780100 0.0 1009129
03:00+12s23900 0.0 100952
06:00+12ssw1191100 0.0 100941
09:00+17ssw3557100 0.0 1009461
12:00+21ssw5748100 0.0 1010765
15:00+22ssw7849100 0.0 1010933
18:00+21ssw67576 0.0 1010703
21:00+14ssw48820 0.0 1011145
15 may, sat
sat1500:00+13sw468344 0.0 1012100
03:00+13ssw47821 0.0 1012122
06:00+13sw47845 0.0 1012134
09:00+19sw455944 0.0 1013496
12:00+23ssw5646100 0.0 10131284
15:00+24sw45437 0.0 10131390
18:00+23sw234497 0.0 10121333
21:00+18sw126089 0.0 101211
16 may, sun
sun1600:00+16n1168100 0.0 101211
03:00+16ne3471100 0.0 101261
06:00+16ne467695 0.0 1011133
09:00+21ene586183 0.0 1010439
12:00+25ene5648100 0.0 10091066
15:00+26ne4546100 0.0 10071616
18:00+25nne6960100 0.0 1005387
21:00+20ene3383100 2.3 100535
17 may, mon
mon1700:00+18se2287100 2.0 100418
03:00+17ese2286100 2.7 100343
06:00+17wnw348985 0.5 100292
09:00+20ene227764 0.9 1003399
12:00+24wsw556072 0.4 10031094
15:00+24wsw6758100 2.1 10041042
18:00+23wsw685536 0.1 10051015
21:00+17sw59745 0.1 1008205